Total_Precipitation_Accumulation
0.00 0.00 0.00 0.00 0.00 0.00 0.00 0.00 0.01 0.03 0.07 0.09 0.08 0.07 0.05 0.04 0.04 0.04 0.03 0.03 0.03 0.05 0.06 0.06 0.07 0.10 0.12 0.13 0.13 0.13 0.12 0.11 0.10 0.10 0.09 0.08 0.06 0.02 0.00 0.00 0.00 0.01 0.02
0.00 0.00 0.00 0.00 0.00 0.00 0.00 0.01 0.02 0.04 0.05 0.08 0.08 0.07 0.05 0.05 0.05 0.06 0.07 0.11 0.08 0.06 0.07 0.07 0.09 0.14 0.16 0.16 0.18 0.18 0.16 0.14 0.14 0.12 0.11 0.11 0.10 0.07 0.05 0.02 0.00 0.00 0.01
0.00 0.00 0.00 0.00 0.00 0.00 0.00 0.00 0.02 0.05 0.06 0.07 0.06 0.08 0.12 0.09 0.05 0.06 0.12 0.14 0.13 0.11 0.08 0.08 0.11 0.10 0.12 0.16 0.23 0.25 0.23 0.19 0.16 0.14 0.13 0.15 0.14 0.13 0.10 0.07 0.03 0.00 0.00
0.00 0.00 0.00 0.00 0.00 0.00 0.00 0.00 0.01 0.04 0.04 0.07 0.08 0.09 0.11 0.14 0.12 0.12 0.15 0.13 0.12 0.11 0.12 0.10 0.14 0.14 0.10 0.12 0.20 0.27 0.31 0.27 0.22 0.19 0.18 0.18 0.16 0.14 0.13 0.11 0.08 0.04 0.01
0.00 0.00 0.00 0.00 0.00 0.00 0.00 0.00 0.01 0.03 0.04 0.05 0.05 0.07 0.07 0.06 0.08 0.12 0.15 0.14 0.14 0.15 0.13 0.16 0.18 0.23 0.28 0.24 0.18 0.30 0.39 0.41 0.40 0.36 0.35 0.32 0.25 0.20 0.17 0.15 0.12 0.10 0.07
0.00 0.00 0.00 0.00 0.00 0.00 0.00 0.00 0.00 0.01 0.03 0.05 0.10 0.14 0.18 0.16 0.13 0.09 0.08 0.13 0.12 0.12 0.18 0.23 0.27 0.30 0.31 0.27 0.26 0.25 0.38 0.49 0.56 0.55 0.48 0.51 0.43 0.34 0.30 0.28 0.25 0.19 0.13
0.00 0.00 0.00 0.00 0.00 0.00 0.00 0.00 0.01 0.01 0.01 0.03 0.10 0.05 0.06 0.08 0.07 0.04 0.07 0.07 0.08 0.08 0.11 0.22 0.33 0.42 0.50 0.60 0.48 0.39 0.43 0.51 0.55 0.58 0.58 0.57 0.64 0.66 0.71 0.75 0.80 0.81 0.68
0.00 0.00 0.00 0.00 0.00 0.00 0.00 0.00 0.01 0.02 0.02 0.05 0.12 0.13 0.06 0.05 0.05 0.04 0.06 0.08 0.12 0.25 0.24 0.26 0.32 0.38 0.43 0.50 0.68 0.64 0.43 0.54 0.71 0.79 0.78 0.79 0.81 0.78 0.82 0.92 0.89 0.79 0.74
0.00 0.00 0.00 0.00 0.00 0.00 0.01 0.01 0.01 0.03 0.03 0.03 0.13 0.29 0.25 0.16 0.16 0.15 0.12 0.17 0.23 0.31 0.40 0.55 0.65 0.47 0.41 0.49 0.64 0.70 0.63 0.51 0.62 0.79 0.90 0.89 0.94 1.07 1.22 1.28 1.33 1.13 1.04
0.00 0.00 0.00 0.00 0.00 0.01 0.01 0.02 0.03 0.04 0.06 0.06 0.09 0.20 0.34 0.36 0.41 0.34 0.27 0.31 0.42 1.04 1.31 1.11 0.99 1.21 1.26 1.01 0.97 1.06 1.19 1.11 0.93 1.03 1.23 1.40 1.56 1.79 1.91 1.93 1.75 1.52 1.41
0.00 0.00 0.00 0.00 0.01 0.02 0.01 0.02 0.03 0.05 0.06 0.09 0.14 0.20 0.30 0.39 0.67 0.76 0.57 0.46 0.42 0.87 0.75 0.68 0.66 0.65 0.96 1.34 1.57 1.31 0.85 0.75 1.07 1.21 1.32 1.68 1.75 2.04 2.81 3.26 2.36 2.37 2.29
0.00 0.00 0.00 0.00 0.00 0.01 0.04 0.03 0.04 0.03 0.04 0.08 0.13 0.14 0.19 0.20 0.25 0.32 0.24 0.14 0.08 0.12 0.15 0.25 0.41 0.50 0.45 0.45 0.63 0.86 1.01 0.90 0.64 0.68 0.83 0.84 0.77 0.79 1.11 2.22 3.00 2.99 2.79
0.00 0.00 0.00 0.00 0.00 0.00 0.02 0.04 0.04 0.01 0.00 0.02 0.03 0.05 0.13 0.35 0.47 0.44 0.36 0.23 0.20 0.29 0.50 0.56 0.50 0.46 0.41 0.43 0.38 0.41 0.39 0.64 0.91 0.88 0.73 0.53 0.42 0.39 0.49 0.76 1.02 1.69 2.48
0.00 0.00 0.00 0.00 0.00 0.01 0.04 0.03 0.02 0.02 0.00 0.00 0.00 0.01 0.06 0.12 0.26 0.39 0.51 0.58 0.52 0.38 0.31 0.47 0.58 0.54 0.54 0.51 0.52 0.55 0.45 0.48 0.56 0.68 0.66 0.58 0.58 0.45 0.38 0.40 0.47 0.48 0.52
0.00 0.00 0.00 0.00 0.00 0.00 0.01 0.01 0.01 0.02 0.01 0.00 0.00 0.00 0.02 0.08 0.14 0.15 0.17 0.20 0.22 0.26 0.34 0.42 0.45 0.45 0.43 0.41 0.38 0.35 0.34 0.32 0.29 0.32 0.33 0.33 0.40 0.37 0.33 0.30 0.33 0.35 0.31
0.00 0.00 0.00 0.00 0.00 0.00 0.00 0.00 0.00 0.00 0.00 0.00 0.00 0.00 0.02 0.05 0.05 0.04 0.05 0.06 0.09 0.12 0.13 0.17 0.22 0.20 0.16 0.15 0.16 0.15 0.15 0.18 0.19 0.16 0.19 0.22 0.18 0.17 0.18 0.22 0.20 0.19 0.22
0.00 0.00 0.00 0.00 0.00 0.00 0.00 0.00 0.00 0.00 0.00 0.00 0.00 0.00 0.00 0.00 0.00 0.00 0.01 0.01 0.01 0.01 0.01 0.03 0.04 0.04 0.04 0.04 0.03 0.02 0.02 0.02 0.02 0.03 0.05 0.05 0.06 0.06 0.08 0.08 0.07 0.09 0.10
0.00 0.00 0.00 0.00 0.00 0.00 0.00 0.00 0.00 0.00 0.00 0.00 0.00 0.00 0.00 0.00 0.00 0.00 0.00 0.00 0.00 0.00 0.00 0.00 0.00 0.00 0.00 0.00 0.00 0.00 0.00 0.00 0.00 0.00 0.00 0.00 0.00 0.00 0.00 0.01 0.02 0.02 0.02
0.00 0.00 0.00 0.00 0.00 0.00 0.00 0.00 0.00 0.00 0.00 0.00 0.00 0.00 0.00 0.00 0.00 0.00 0.00 0.00 0.00 0.00 0.00 0.00 0.00 0.00 0.00 0.00 0.00 0.00 0.00 0.00 0.00 0.00 0.00 0.00 0.00 0.00 0.00 0.00 0.00 0.00 0.01
0.00 0.00 0.00 0.00 0.00 0.00 0.00 0.00 0.00 0.00 0.00 0.00 0.00 0.00 0.00 0.00 0.00 0.00 0.00 0.00 0.00 0.00 0.00 0.00 0.00 0.00 0.00 0.00 0.00 0.00 0.00 0.00 0.00 0.00 0.00 0.00 0.00 0.00 0.00 0.00 0.00 0.00 0.00
0.00 0.00 0.00 0.00 0.00 0.00 0.00 0.00 0.00 0.00 0.00 0.00 0.00 0.00 0.00 0.00 0.00 0.00 0.00 0.00 0.00 0.00 0.00 0.00 0.00 0.00 0.00 0.00 0.00 0.00 0.00 0.00 0.00 0.00 0.00 0.00 0.00 0.00 0.00 0.00 0.00 0.00 0.01
0.00 0.00 0.00 0.00 0.00 0.00 0.00 0.00 0.00 0.00 0.00 0.00 0.00 0.00 0.00 0.00 0.00 0.00 0.00 0.00 0.00 0.00 0.00 0.00 0.00 0.00 0.00 0.00 0.00 0.00 0.00 0.00 0.00 0.00 0.00 0.00 0.00 0.00 0.00 0.00 0.00 0.01 0.02
0.00 0.00 0.00 0.00 0.00 0.00 0.00 0.00 0.00 0.00 0.00 0.00 0.00 0.00 0.00 0.00 0.00 0.00 0.00 0.00 0.00 0.00 0.00 0.00 0.00 0.00 0.00 0.00 0.00 0.00 0.00 0.01 0.01 0.00 0.00 0.00 0.00 0.00 0.00 0.00 0.00 0.00 0.04
0.00 0.00 0.00 0.00 0.00 0.00 0.00 0.00 0.00 0.00 0.00 0.00 0.00 0.00 0.00 0.00 0.00 0.00 0.00 0.00 0.00 0.00 0.00 0.00 0.00 0.00 0.00 0.00 0.01 0.02 0.02 0.01 0.00 0.00 0.00 0.00 0.00 0.00 0.00 0.00 0.00 0.00 0.01
0.00 0.00 0.00 0.00 0.00 0.00 0.00 0.00 0.00 0.00 0.00 0.00 0.00 0.00 0.00 0.00 0.00 0.00 0.00 0.00 0.00 0.00 0.00 0.00 0.00 0.01 0.02 0.03 0.03 0.03 0.02 0.02 0.01 0.00 0.00 0.00 0.00 0.00 0.00 0.00 0.00 0.00 0.00
0.00 0.00 0.00 0.00 0.00 0.00 0.00 0.00 0.00 0.00 0.00 0.00 0.01 0.00 0.00 0.00 0.00 0.00 0.00 0.00 0.01 0.00 0.00 0.00 0.00 0.00 0.00 0.00 0.00 0.00 0.00 0.01 0.01 0.01 0.00 0.00 0.00 0.00 0.01 0.00 0.00 0.00 0.00